Terminal Aerodrome Forecast
Issued by NWS Mobile, AL

Current Version | Previous Version | Text Only | Print | Product List | Glossary On
Versions: 1 2 3 4 5 6 7 8 9 10 11 12 13 14 15 16 17 18 19 20 21 22 23 24 25 26
000
FTUS44 KMOB 171000 AAA
TAFPNS
TAF AMD
KPNS 171053Z 1711/1806 28004KT P6SM SCT003 BKN200
      TEMPO 1711/1713 3SM BR BKN003
     FM171500 35005KT P6SM FEW040 SCT250
     FM171900 18007KT P6SM SCT040 SCT250
     FM180000 VRB03KT P6SM SKC=

USA.gov is the U.S. government's official web portal to all federal, state and local government web resources and services.